TimeCDT,TemperatureF,Dew PointF,Humidity,Sea Level PressureIn,VisibilityMPH,Wind Direction,Wind SpeedMPH,Gust SpeedMPH,PrecipitationIn,Events,Conditions,WindDirDegrees,DateUTC
12:56 AM,34.0,32.0,92,30.07,10.0,Calm,Calm,-,N/A,,Clear,0,2013-10-16 05:56:00
1:56 AM,33.1,30.9,92,30.06,10.0,West,3.5,-,N/A,,Clear,260,2013-10-16 06:56:00
2:56 AM,32.0,30.9,96,30.04,10.0,Calm,Calm,-,N/A,,Clear,0,2013-10-16 07:56:00
3:56 AM,33.1,30.9,92,30.02,10.0,West,4.6,-,N/A,,Clear,270,2013-10-16 08:56:00
4:56 AM,33.1,30.9,92,30.00,10.0,West,6.9,-,N/A,,Clear,260,2013-10-16 09:56:00
5:56 AM,34.0,30.9,89,29.99,10.0,West,5.8,-,N/A,,Clear,260,2013-10-16 10:56:00
6:56 AM,35.1,30.9,85,29.98,10.0,West,6.9,-,N/A,,Clear,260,2013-10-16 11:56:00
7:56 AM,35.1,30.9,85,29.97,10.0,West,6.9,-,N/A,,Clear,260,2013-10-16 12:56:00
8:56 AM,36.0,32.0,86,29.97,10.0,WSW,6.9,-,N/A,,Clear,250,2013-10-16 13:56:00
9:56 AM,41.0,34.0,76,29.96,10.0,West,9.2,-,N/A,,Clear,260,2013-10-16 14:56:00
10:56 AM,46.9,36.0,66,29.94,10.0,West,9.2,-,N/A,,Clear,270,2013-10-16 15:56:00
11:56 AM,51.1,37.0,59,29.93,10.0,West,8.1,-,N/A,,Clear,270,2013-10-16 16:56:00
12:56 PM,54.0,37.9,55,29.91,10.0,West,10.4,-,N/A,,Clear,260,2013-10-16 17:56:00
1:56 PM,55.9,37.0,49,29.88,10.0,WSW,15.0,-,N/A,,Clear,240,2013-10-16 18:56:00
2:56 PM,57.0,36.0,45,29.87,10.0,West,11.5,-,N/A,,Clear,280,2013-10-16 19:56:00
3:56 PM,57.9,36.0,44,29.86,10.0,West,13.8,-,N/A,,Clear,260,2013-10-16 20:56:00
4:56 PM,57.0,36.0,45,29.85,10.0,West,12.7,-,N/A,,Clear,280,2013-10-16 21:56:00
5:56 PM,55.0,39.0,55,29.85,10.0,West,9.2,-,N/A,,Clear,260,2013-10-16 22:56:00
6:56 PM,51.1,39.0,63,29.86,10.0,WSW,4.6,-,N/A,,Clear,240,2013-10-16 23:56:00
7:56 PM,50.0,39.0,66,29.86,10.0,WSW,4.6,-,N/A,,Scattered Clouds,250,2013-10-17 00:56:00
8:56 PM,48.0,39.0,71,29.86,10.0,West,3.5,-,N/A,,Clear,280,2013-10-17 01:56:00
9:56 PM,46.0,39.9,79,29.86,10.0,Calm,Calm,-,N/A,,Clear,0,2013-10-17 02:56:00
10:56 PM,46.0,42.1,86,29.86,10.0,WNW,3.5,-,N/A,,Overcast,300,2013-10-17 03:56:00
11:56 PM,46.0,42.1,86,29.86,10.0,WNW,5.8,-,N/A,,Overcast,300,2013-10-17 04:56:00